GW3556 Weather Reports


time (UTC)temp
C
wind
direction
speed
KPH
gust
KPH
rain 1hr
cm
rain 24hr
cm
rain mn
cm
humidity
%
barometer
mb
20260504174012 14 271 11.3 19.3 0.00 0.00 0.00 37 1015.8
20260504173513 14 277 11.3 17.7 0.00 0.00 0.00 37 1015.8
20260504173034 14 330 6.4 12.9 0.00 0.00 0.00 37 1015.8
20260504172514 14 320 4.8 8.0 0.00 0.00 0.00 39 1015.8
20260504172014 14 290 6.4 16.1 0.00 0.00 0.00 38 1015.8
20260504171535 13 288 6.4 16.1 0.00 0.00 0.00 40 1016.0
20260504171014 13 310 9.7 16.1 0.00 0.00 0.00 37 1015.8
20260504170512 13 277 6.4 14.5 0.00 0.00 0.00 38 1015.8
20260504151014 11 310 8.0 14.5 0.00 0.00 0.00 39 1016.0
20260504150515 11 305 8.0 16.1 0.00 0.00 0.00 39 1016.1
20260504141013 11 313 12.9 22.5 0.00 0.00 0.00 39 1015.7
20260504140513 11 298 8.0 19.3 0.00 0.00 0.00 40 1015.8
20260504130514 11 326 11.3 17.7 0.00 0.00 0.00 37 1015.6
20260504110514 11 315 8.0 14.5 0.00 0.00 0.00 36 1015.9
20260504100513 12 311 12.9 16.1 0.00 0.00 0.00 37 1015.8
20260504081551 13 310 8.0 16.1 0.00 0.00 0.00 37 1016.2
20260504081016 13 310 8.0 16.1 0.00 0.00 0.00 37 1016.2
20260504080513 13 302 8.0 12.9 0.00 0.00 0.00 37 1016.1
20260504050520 14 360 4.8 12.9 0.00 0.00 0.00 35 1016.7
20260504050335 14 360 6.4 12.9 0.00 0.00 0.00 35 1016.7
20260504045618 14 331 8.0 14.5 0.00 0.00 0.00 34 1016.7
20260504045018 14 329 8.0 14.5 0.00 0.00 0.00 34 1016.7
20260504044557 15 329 8.0 16.1 0.00 0.00 0.00 35 1016.6
20260504044015 15 322 9.7 16.1 0.00 0.00 0.00 34 1016.7
20260504043515 15 321 8.0 16.1 0.00 0.00 0.00 34 1016.7
20260504043053 15 326 9.7 14.5 0.00 0.00 0.00 34 1016.7
20260504042517 15 316 9.7 17.7 0.00 0.00 0.00 34 1016.7
20260504042019 15 317 11.3 17.7 0.00 0.00 0.00 34 1016.7
20260504041550 15 318 11.3 16.1 0.00 0.00 0.00 34 1016.7
20260504041016 15 327 11.3 17.7 0.00 0.00 0.00 34 1016.5
20260504040515 15 323 9.7 19.3 0.00 0.00 0.00 34 1016.7
20260504040053 15 327 9.7 19.3 0.00 0.00 0.00 34 1016.5
20260504035530 15 318 11.3 19.3 0.00 0.00 0.00 34 1016.6
20260504035020 15 332 14.5 20.9 0.00 0.00 0.00 33 1016.4
20260504034600 15 303 14.5 20.9 0.00 0.00 0.00 33 1016.3
20260504034016 15 314 12.9 20.9 0.00 0.00 0.00 33 1016.3
20260504033700 15 329 14.5 20.9 0.00 0.00 0.00 33 1016.1
20260504032518 15 319 16.1 19.3 0.00 0.00 0.00 32 1016.2
20260504032015 16 312 12.9 24.1 0.00 0.00 0.00 33 1016.1
20260504031008 16 312 14.5 20.9 0.00 0.00 0.00 31 1016.2
20260504030548 16 307 12.9 20.9 0.00 0.00 0.00 32 1016.3
20260504025518 16 306 12.9 20.9 0.00 0.00 0.00 31 1016.2
20260504025017 17 333 12.9 22.5 0.00 0.00 0.00 30 1016.1
20260504024018 17 317 16.1 24.1 0.00 0.00 0.00 30 1015.9
20260504023519 17 319 16.1 20.9 0.00 0.00 0.00 29 1016.1
20260504022521 17 330 9.7 19.3 0.00 0.00 0.00 29 1016.0
20260504022020 17 281 12.9 19.3 0.00 0.00 0.00 30 1016.1
20260504021558 17 352 8.0 20.9 0.00 0.00 0.00 28 1016.2
20260504021017 17 307 9.7 24.1 0.00 0.00 0.00 29 1016.2
20260504020522 18 284 14.5 25.7 0.00 0.00 0.00 28 1016.2
20260504020055 18 327 16.1 25.7 0.00 0.00 0.00 27 1016.2
20260504015520 18 302 14.5 29.0 0.00 0.00 0.00 27 1016.2
20260504015018 18 288 16.1 29.0 0.00 0.00 0.00 28 1016.2
20260504014605 18 237 14.5 29.0 0.00 0.00 0.00 27 1016.2
20260504014019 18 273 14.5 30.6 0.00 0.00 0.00 27 1016.2
20260504013523 18 301 19.3 29.0 0.00 0.00 0.00 26 1016.2
20260504013059 19 281 19.3 32.2 0.00 0.00 0.00 26 1016.3
20260504012520 18 292 19.3 32.2 0.00 0.00 0.00 26 1016.3
20260504012020 19 287 14.5 27.4 0.00 0.00 0.00 26 1016.3
20260504011557 18 243 11.3 27.4 0.00 0.00 0.00 26 1016.5
20260504011021 18 293 14.5 25.7 0.00 0.00 0.00 26 1016.5
20260504010522 18 306 17.7 29.0 0.00 0.00 0.00 26 1016.4
20260504005521 19 277 17.7 33.8 0.00 0.00 0.00 26 1016.6
20260504005018 19 284 14.5 33.8 0.00 0.00 0.00 25 1016.7
20260504004612 19 293 12.9 32.2 0.00 0.00 0.00 26 1016.7
20260504004021 19 292 16.1 32.2 0.00 0.00 0.00 24 1016.8
20260504003516 19 323 12.9 24.1 0.00 0.00 0.00 27 1016.7
20260504002514 19 298 11.3 24.1 0.00 0.00 0.00 28 1016.9
20260504002149 18 299 11.3 24.1 0.00 0.00 0.00 27 1017.0
20260504001017 18 295 14.5 27.4 0.00 0.00 0.00 26 1017.0
20260504000520 20 252 17.7 27.4 0.00 0.00 0.00 25 1017.2
20260504000139 19 280 17.7 27.4 0.00 0.00 0.00 26 1017.2
20260503235516 18 265 14.5 24.1 0.00 0.00 0.00 26 1017.3
20260503234549 19 296 11.3 22.5 0.00 0.00 0.00 26 1017.1
20260503234015 18 302 14.5 22.5 0.00 0.00 0.00 26 1017.0
20260503233514 18 287 9.7 24.1 0.00 0.00 0.00 26 1017.4
20260503233038 19 301 16.1 24.1 0.00 0.00 0.00 26 1017.1
20260503232754 19 311 11.3 30.6 0.00 0.00 0.00 26 1017.2
20260503232256 18 291 14.5 30.6 0.00 0.00 0.00 26 1017.2
20260503231545 19 294 17.7 24.1 0.00 0.00 0.00 25 1017.3
20260503231019 19 286 8.0 25.7 0.00 0.00 0.00 28 1017.4
20260503230521 19 299 19.3 25.7 0.00 0.00 0.00 25 1017.3
20260503230044 19 281 14.5 27.4 0.00 0.00 0.00 26 1017.4
20260503225517 18 294 12.9 27.4 0.00 0.00 0.00 25 1017.4
20260503225016 18 304 8.0 24.1 0.00 0.00 0.00 26 1017.6
20260503224554 19 280 16.1 20.9 0.00 0.00 0.00 26 1017.7
20260503224014 18 289 12.9 24.1 0.00 0.00 0.00 27 1017.8
20260503223517 18 279 12.9 20.9 0.00 0.00 0.00 25 1018.1
20260503223048 19 282 12.9 19.3 0.00 0.00 0.00 26 1018.1
20260503222515 19 290 11.3 17.7 0.00 0.00 0.00 25 1018.2
20260503222013 18 5 6.4 25.7 0.00 0.00 0.00 29 1018.2
20260503221548 18 316 12.9 25.7 0.00 0.00 0.00 25 1018.4
20260503221017 18 311 14.5 24.1 0.00 0.00 0.00 26 1018.3
20260503220514 19 292 6.4 16.1 0.00 0.00 0.00 25 1018.5
20260503220045 18 314 8.0 20.9 0.00 0.00 0.00 26 1018.5
20260503215516 19 263 12.9 20.9 0.00 0.00 0.00 25 1018.5
20260503215016 19 282 6.4 12.9 0.00 0.00 0.00 27 1018.5
20260503214544 18 283 8.0 19.3 0.00 0.00 0.00 27 1018.5
20260503214142 18 260 9.7 22.5 0.00 0.00 0.00 27 1018.6
20260503213518 18 272 8.0 20.9 0.00 0.00 0.00 28 1018.6
20260503213057 18 288 12.9 20.9 0.00 0.00 0.00 26 1018.6
20260503212516 18 267 6.4 20.9 0.00 0.00 0.00 30 1018.7
20260503212017 18 304 12.9 20.9 0.00 0.00 0.00 25 1018.7
20260503211602 18 226 4.8 16.1 0.00 0.00 0.00 29 1018.7
20260503211015 18 288 9.7 16.1 0.00 0.00 0.00 26 1018.9
20260503210515 18 261 4.8 16.1 0.00 0.00 0.00 28 1018.8
20260503210053 18 257 4.8 16.1 0.00 0.00 0.00 28 1018.9
20260503205526 18 277 8.0 17.7 0.00 0.00 0.00 28 1019.1
20260503205019 18 223 3.2 12.9 0.00 0.00 0.00 28 1019.0
20260503204611 18 263 6.4 16.1 0.00 0.00 0.00 26 1019.1
20260503204017 18 281 8.0 16.1 0.00 0.00 0.00 25 1019.1
20260503203523 18 238 4.8 11.3 0.00 0.00 0.00 30 1019.1
20260503203239 18 248 4.8 8.0 0.00 0.00 0.00 26 1019.2
20260503202518 18 297 1.6 14.5 0.00 0.00 0.00 28 1019.2
20260503202258 17 220 6.4 14.5 0.00 0.00 0.00 29 1019.2
20260503201557 17 215 4.8 14.5 0.00 0.00 0.00 28 1019.2
20260503201018 17 289 6.4 11.3 0.00 0.00 0.00 28 1019.2
20260503200520 17 254 4.8 9.7 0.00 0.00 0.00 29 1019.5
20260503200044 17 119 1.6 9.7 0.00 0.00 0.00 28 1019.2
20260503195520 17 360 3.2 14.5 0.00 0.00 0.00 28 1019.2
20260503195026 17 277 6.4 14.5 0.00 0.00 0.00 30 1019.5
20260503194557 16 287 6.4 19.3 0.00 0.00 0.00 31 1019.6
20260503194015 16 290 6.4 19.3 0.00 0.00 0.00 28 1019.6
20260503193518 16 18 8.0 20.9 0.00 0.00 0.00 31 1019.7
20260503193039 16 290 12.9 20.9 0.00 0.00 0.00 30 1019.6
20260503192514 16 9 8.0 20.9 0.00 0.00 0.00 31 1019.7
20260503192015 16 320 8.0 17.7 0.00 0.00 0.00 30 1019.7
20260503191545 16 287 4.8 17.7 0.00 0.00 0.00 30 1019.8
20260503191015 16 338 9.7 17.7 0.00 0.00 0.00 32 1019.8
20260503190520 16 320 8.0 17.7 0.00 0.00 0.00 30 1019.8
20260503190050 16 302 3.2 20.9 0.00 0.00 0.00 28 1019.7
20260503185526 16 302 14.5 22.5 0.00 0.00 0.00 30 1019.9
20260503185016 15 292 14.5 22.5 0.00 0.00 0.00 32 1019.8
20260503184552 15 267 14.5 20.9 0.00 0.00 0.00 31 1019.8
20260503184015 15 247 9.7 19.3 0.00 0.00 0.00 31 1019.8
20260503183518 15 271 12.9 19.3 0.00 0.00 0.00 31 1019.9
20260503182518 15 323 12.9 20.9 0.00 0.00 0.00 32 1019.9
20260503182017 15 286 8.0 16.1 0.00 0.00 0.00 32 1019.9
20260503181602 15 295 9.7 14.5 0.00 0.00 0.00 34 1019.9
20260503181019 15 267 9.7 17.7 0.00 0.00 0.00 33 1020.1
20260503180516 15 309 9.7 17.7 0.00 0.00 0.00 32 1020.1
20260503180050 15 300 8.0 16.1 0.00 0.00 0.00 33 1020.0
20260503175515 15 308 6.4 11.3 0.00 0.00 0.00 33 1020.1
20260503174554 14 303 3.2 14.5 0.00 0.00 0.00 34 1020.2